| time (UTC) | temp F | wind direction | speed MPH | gust MPH | rain 1hr in | rain 24hr in | rain mn in | humidity % | barometer mb |
| 20260505060105 | 71 | 186 | 2.0 | 8.0 | 0.00 | 0.00 | 0.00 | 85 | 1012.2 |
| 20260505055600 | 71 | 182 | 2.0 | 10.0 | 0.00 | 0.00 | 0.00 | 84 | 1012.3 |
| 20260505055100 | 71 | 182 | 4.0 | 10.0 | 0.00 | 0.00 | 0.00 | 84 | 1012.3 |
| 20260505054610 | 71 | 136 | 3.0 | 8.0 | 0.00 | 0.00 | 0.00 | 84 | 1012.2 |
| 20260505054057 | 71 | 148 | 2.0 | 6.0 | 0.00 | 0.00 | 0.00 | 84 | 1012.3 |
| 20260505053557 | 71 | 153 | 3.0 | 10.0 | 0.00 | 0.00 | 0.00 | 83 | 1012.5 |
| 20260505053058 | 72 | 171 | 3.0 | 10.0 | 0.00 | 0.00 | 0.00 | 83 | 1012.4 |
| 20260505052555 | 72 | 174 | 3.0 | 8.0 | 0.00 | 0.00 | 0.00 | 83 | 1012.6 |
| 20260505052055 | 72 | 141 | 2.0 | 7.0 | 0.00 | 0.00 | 0.00 | 83 | 1012.7 |
| 20260505051612 | 72 | 184 | 4.0 | 8.0 | 0.00 | 0.00 | 0.00 | 83 | 1012.6 |
| 20260505051055 | 72 | 185 | 3.0 | 10.0 | 0.00 | 0.00 | 0.00 | 83 | 1012.6 |
| 20260505050553 | 72 | 182 | 4.0 | 10.0 | 0.00 | 0.00 | 0.00 | 83 | 1012.6 |
| 20260505041553 | 72 | 250 | 5.0 | 9.0 | 0.00 | 0.00 | 0.00 | 81 | 1012.5 |
| 20260505041051 | 72 | 157 | 4.0 | 10.0 | 0.00 | 0.00 | 0.00 | 80 | 1012.5 |
| 20260505040551 | 73 | 175 | 2.0 | 11.0 | 0.00 | 0.00 | 0.00 | 80 | 1012.8 |
| 20260505040051 | 73 | 148 | 5.0 | 11.0 | 0.00 | 0.00 | 0.00 | 80 | 1013.0 |
| 20260505035550 | 73 | 180 | 4.0 | 10.0 | 0.00 | 0.00 | 0.00 | 80 | 1012.9 |
| 20260505035050 | 73 | 182 | 4.0 | 10.0 | 0.00 | 0.00 | 0.00 | 79 | 1012.8 |
| 20260505034550 | 73 | 161 | 5.0 | 11.0 | 0.00 | 0.00 | 0.00 | 79 | 1013.1 |
| 20260505034049 | 73 | 141 | 5.0 | 14.0 | 0.00 | 0.00 | 0.00 | 79 | 1013.1 |
| 20260505033550 | 73 | 187 | 4.0 | 14.0 | 0.00 | 0.00 | 0.00 | 79 | 1013.0 |
| 20260505033049 | 73 | 169 | 4.0 | 10.0 | 0.00 | 0.00 | 0.00 | 79 | 1013.2 |
| 20260505032549 | 73 | 173 | 3.0 | 11.0 | 0.00 | 0.00 | 0.00 | 79 | 1013.1 |
| 20260505032048 | 73 | 174 | 4.0 | 11.0 | 0.00 | 0.00 | 0.00 | 78 | 1013.0 |
| 20260505031555 | 73 | 184 | 5.0 | 16.0 | 0.00 | 0.00 | 0.00 | 78 | 1012.9 |
| 20260505031049 | 73 | 239 | 6.0 | 16.0 | 0.00 | 0.00 | 0.00 | 78 | 1012.9 |
| 20260505030548 | 73 | 130 | 5.0 | 12.0 | 0.00 | 0.00 | 0.00 | 78 | 1013.0 |
| 20260505030048 | 74 | 171 | 5.0 | 12.0 | 0.00 | 0.00 | 0.00 | 78 | 1013.0 |
| 20260505025548 | 74 | 175 | 4.0 | 10.0 | 0.00 | 0.00 | 0.00 | 78 | 1013.0 |
| 20260505025047 | 74 | 148 | 5.0 | 10.0 | 0.00 | 0.00 | 0.00 | 78 | 1013.1 |
| 20260505024553 | 74 | 209 | 5.0 | 9.0 | 0.00 | 0.00 | 0.00 | 77 | 1013.2 |
| 20260505024047 | 74 | 146 | 4.0 | 9.0 | 0.00 | 0.00 | 0.00 | 77 | 1012.9 |
| 20260505023547 | 74 | 152 | 5.0 | 12.0 | 0.00 | 0.00 | 0.00 | 77 | 1012.9 |
| 20260505023047 | 74 | 210 | 4.0 | 12.0 | 0.00 | 0.00 | 0.00 | 77 | 1012.9 |
| 20260505022548 | 74 | 153 | 3.0 | 10.0 | 0.00 | 0.00 | 0.00 | 77 | 1012.8 |
| 20260505022047 | 74 | 182 | 3.0 | 8.0 | 0.00 | 0.00 | 0.00 | 77 | 1012.7 |
| 20260505021550 | 74 | 159 | 4.0 | 9.0 | 0.00 | 0.00 | 0.00 | 77 | 1012.8 |
| 20260505021048 | 74 | 192 | 5.0 | 11.0 | 0.00 | 0.00 | 0.00 | 77 | 1012.8 |
| 20260505020546 | 74 | 174 | 4.0 | 11.0 | 0.00 | 0.00 | 0.00 | 77 | 1012.7 |
| 20260505020050 | 74 | 111 | 3.0 | 16.0 | 0.00 | 0.00 | 0.00 | 76 | 1012.6 |
| 20260505015546 | 74 | 199 | 7.0 | 16.0 | 0.00 | 0.00 | 0.00 | 76 | 1012.7 |
| 20260505015049 | 75 | 211 | 2.0 | 14.0 | 0.00 | 0.00 | 0.00 | 76 | 1012.5 |
| 20260505014551 | 75 | 144 | 5.0 | 14.0 | 0.00 | 0.00 | 0.00 | 76 | 1012.6 |
| 20260505014044 | 75 | 182 | 3.0 | 11.0 | 0.00 | 0.00 | 0.00 | 76 | 1012.5 |
| 20260505013544 | 75 | 191 | 4.0 | 11.0 | 0.00 | 0.00 | 0.00 | 75 | 1012.4 |
| 20260505013045 | 75 | 213 | 4.0 | 13.0 | 0.00 | 0.00 | 0.00 | 75 | 1012.5 |
| 20260505012544 | 75 | 167 | 6.0 | 11.0 | 0.00 | 0.00 | 0.00 | 75 | 1012.5 |
| 20260505012044 | 75 | 166 | 2.0 | 10.0 | 0.00 | 0.00 | 0.00 | 74 | 1012.3 |
| 20260505011544 | 75 | 160 | 3.0 | 10.0 | 0.00 | 0.00 | 0.00 | 74 | 1012.3 |
| 20260505011044 | 75 | 150 | 4.0 | 9.0 | 0.00 | 0.00 | 0.00 | 74 | 1012.4 |
| 20260505010543 | 75 | 149 | 3.0 | 10.0 | 0.00 | 0.00 | 0.00 | 73 | 1012.5 |
| 20260505010053 | 76 | 168 | 3.0 | 7.0 | 0.00 | 0.00 | 0.00 | 73 | 1012.4 |
| 20260505005542 | 76 | 157 | 3.0 | 8.0 | 0.00 | 0.00 | 0.00 | 73 | 1012.3 |
| 20260505005042 | 76 | 155 | 4.0 | 10.0 | 0.00 | 0.00 | 0.00 | 73 | 1012.3 |
| 20260505004543 | 76 | 160 | 4.0 | 10.0 | 0.00 | 0.00 | 0.00 | 73 | 1012.3 |
| 20260505004040 | 76 | 188 | 2.0 | 9.0 | 0.00 | 0.00 | 0.00 | 73 | 1012.2 |
| 20260505003540 | 76 | 115 | 4.0 | 9.0 | 0.00 | 0.00 | 0.00 | 72 | 1012.2 |
| 20260505003040 | 76 | 177 | 4.0 | 9.0 | 0.00 | 0.00 | 0.00 | 72 | 1012.2 |
| 20260505002540 | 77 | 181 | 1.0 | 7.0 | 0.00 | 0.00 | 0.00 | 72 | 1012.2 |
| 20260505002040 | 77 | 142 | 4.0 | 8.0 | 0.00 | 0.00 | 0.00 | 71 | 1012.2 |
| 20260505001540 | 77 | 162 | 4.0 | 8.0 | 0.00 | 0.00 | 0.00 | 71 | 1012.2 |
| 20260505001042 | 77 | 173 | 2.0 | 8.0 | 0.00 | 0.00 | 0.00 | 71 | 1012.3 |
| 20260505000539 | 77 | 181 | 3.0 | 11.0 | 0.00 | 0.00 | 0.00 | 71 | 1012.2 |
| 20260505000045 | 77 | 178 | 5.0 | 12.0 | 0.00 | 0.00 | 0.00 | 71 | 1012.2 |
| 20260504235539 | 77 | 126 | 5.0 | 14.0 | 0.00 | 0.00 | 0.00 | 71 | 1012.1 |
| 20260504235038 | 77 | 131 | 5.0 | 14.0 | 0.00 | 0.00 | 0.00 | 70 | 1012.3 |
| 20260504234537 | 77 | 188 | 3.0 | 14.0 | 0.00 | 0.00 | 0.00 | 70 | 1012.3 |
| 20260504234036 | 77 | 183 | 5.0 | 14.0 | 0.00 | 0.00 | 0.00 | 70 | 1012.5 |
| 20260504233540 | 77 | 190 | 4.0 | 10.0 | 0.00 | 0.00 | 0.00 | 70 | 1012.6 |
| 20260504233042 | 77 | 182 | 5.0 | 10.0 | 0.00 | 0.00 | 0.00 | 70 | 1012.6 |
| 20260504232536 | 77 | 241 | 3.0 | 9.0 | 0.00 | 0.00 | 0.00 | 70 | 1012.7 |
| 20260504232035 | 78 | 144 | 4.0 | 10.0 | 0.00 | 0.00 | 0.00 | 69 | 1012.6 |
| 20260504231541 | 78 | 167 | 5.0 | 10.0 | 0.00 | 0.00 | 0.00 | 69 | 1012.6 |
| 20260504231034 | 78 | 188 | 5.0 | 10.0 | 0.00 | 0.00 | 0.00 | 69 | 1012.8 |
| 20260504230534 | 78 | 140 | 4.0 | 13.0 | 0.00 | 0.00 | 0.00 | 69 | 1012.8 |
| 20260504230041 | 78 | 167 | 4.0 | 13.0 | 0.00 | 0.00 | 0.00 | 68 | 1012.7 |
| 20260504225537 | 78 | 140 | 3.0 | 10.0 | 0.00 | 0.00 | 0.00 | 69 | 1012.9 |
| 20260504225034 | 78 | 200 | 5.0 | 9.0 | 0.00 | 0.00 | 0.00 | 68 | 1013.0 |
| 20260504224532 | 78 | 167 | 1.0 | 12.0 | 0.00 | 0.00 | 0.00 | 68 | 1012.9 |
| 20260504224031 | 78 | 195 | 4.0 | 12.0 | 0.00 | 0.00 | 0.00 | 68 | 1013.0 |
| 20260504223530 | 78 | 190 | 3.0 | 10.0 | 0.00 | 0.00 | 0.00 | 68 | 1013.0 |
| 20260504223031 | 78 | 195 | 4.0 | 13.0 | 0.00 | 0.00 | 0.00 | 68 | 1013.0 |
| 20260504222529 | 79 | 233 | 5.0 | 14.0 | 0.00 | 0.00 | 0.00 | 68 | 1013.0 |
| 20260504222029 | 79 | 219 | 5.0 | 12.0 | 0.00 | 0.00 | 0.00 | 67 | 1013.2 |
| 20260504221529 | 79 | 155 | 4.0 | 12.0 | 0.00 | 0.00 | 0.00 | 66 | 1013.3 |
| 20260504221028 | 79 | 185 | 5.0 | 12.0 | 0.00 | 0.00 | 0.00 | 66 | 1013.3 |
| 20260504220528 | 79 | 148 | 2.0 | 10.0 | 0.00 | 0.00 | 0.00 | 66 | 1013.4 |
| 20260504220030 | 79 | 169 | 3.0 | 10.0 | 0.00 | 0.00 | 0.00 | 65 | 1013.5 |
| 20260504215527 | 79 | 227 | 3.0 | 8.0 | 0.00 | 0.00 | 0.00 | 65 | 1013.4 |
| 20260504215027 | 79 | 190 | 4.0 | 10.0 | 0.00 | 0.00 | 0.00 | 64 | 1013.5 |
| 20260504214528 | 79 | 160 | 4.0 | 12.0 | 0.00 | 0.00 | 0.00 | 64 | 1013.5 |
| 20260504214030 | 79 | 192 | 5.0 | 10.0 | 0.00 | 0.00 | 0.00 | 64 | 1013.5 |
| 20260504213526 | 80 | 203 | 5.0 | 10.0 | 0.00 | 0.00 | 0.00 | 64 | 1013.6 |
| 20260504213025 | 80 | 201 | 5.0 | 12.0 | 0.00 | 0.00 | 0.00 | 63 | 1013.7 |
| 20260504212525 | 80 | 186 | 4.0 | 13.0 | 0.00 | 0.00 | 0.00 | 63 | 1013.6 |
| 20260504212025 | 80 | 184 | 5.0 | 12.0 | 0.00 | 0.00 | 0.00 | 62 | 1013.7 |
| 20260504211525 | 80 | 157 | 3.0 | 11.0 | 0.00 | 0.00 | 0.00 | 62 | 1013.7 |
| 20260504211026 | 81 | 169 | 4.0 | 11.0 | 0.00 | 0.00 | 0.00 | 62 | 1013.7 |
| 20260504210524 | 81 | 168 | 3.0 | 16.0 | 0.00 | 0.00 | 0.00 | 62 | 1013.7 |
| 20260504210027 | 81 | 167 | 6.0 | 16.0 | 0.00 | 0.00 | 0.00 | 61 | 1013.8 |
| 20260504205522 | 81 | 173 | 3.0 | 11.0 | 0.00 | 0.00 | 0.00 | 61 | 1014.0 |
| 20260504205020 | 82 | 188 | 4.0 | 11.0 | 0.00 | 0.00 | 0.00 | 60 | 1014.0 |
| 20260504204519 | 81 | 162 | 2.0 | 8.0 | 0.00 | 0.00 | 0.00 | 61 | 1014.0 |
| 20260504204020 | 81 | 195 | 2.0 | 8.0 | 0.00 | 0.00 | 0.00 | 61 | 1014.1 |
| 20260504203518 | 81 | 193 | 3.0 | 10.0 | 0.00 | 0.00 | 0.00 | 62 | 1014.2 |
| 20260504203023 | 81 | 152 | 3.0 | 11.0 | 0.00 | 0.00 | 0.00 | 62 | 1014.3 |
| 20260504202518 | 81 | 134 | 4.0 | 10.0 | 0.00 | 0.00 | 0.00 | 62 | 1014.4 |
| 20260504202017 | 81 | 241 | 6.0 | 10.0 | 0.00 | 0.00 | 0.00 | 62 | 1014.4 |
| 20260504201517 | 81 | 192 | 3.0 | 10.0 | 0.00 | 0.00 | 0.00 | 61 | 1014.5 |
| 20260504201023 | 81 | 183 | 3.0 | 10.0 | 0.00 | 0.00 | 0.00 | 61 | 1014.5 |
| 20260504200516 | 81 | 161 | 2.0 | 8.0 | 0.00 | 0.00 | 0.00 | 61 | 1014.7 |
| 20260504200016 | 81 | 198 | 3.0 | 9.0 | 0.00 | 0.00 | 0.00 | 60 | 1014.7 |
| 20260504195517 | 81 | 163 | 3.0 | 9.0 | 0.00 | 0.00 | 0.00 | 59 | 1014.8 |
| 20260504195015 | 81 | 190 | 3.0 | 7.0 | 0.00 | 0.00 | 0.00 | 61 | 1014.7 |
| 20260504194515 | 80 | 83 | 1.0 | 9.0 | 0.00 | 0.00 | 0.00 | 60 | 1014.8 |
| 20260504194013 | 80 | 122 | 4.0 | 9.0 | 0.00 | 0.00 | 0.00 | 59 | 1014.9 |
| 20260504193516 | 81 | 186 | 4.0 | 9.0 | 0.00 | 0.00 | 0.00 | 60 | 1015.1 |
| 20260504193016 | 81 | 131 | 1.0 | 8.0 | 0.00 | 0.00 | 0.00 | 60 | 1015.0 |
| 20260504192511 | 81 | 152 | 3.0 | 11.0 | 0.00 | 0.00 | 0.00 | 61 | 1015.0 |
| 20260504192011 | 80 | 189 | 1.0 | 9.0 | 0.00 | 0.00 | 0.00 | 61 | 1015.3 |
| 20260504191521 | 80 | 224 | 3.0 | 10.0 | 0.00 | 0.00 | 0.00 | 62 | 1015.2 |
| 20260504191012 | 80 | 195 | 5.0 | 12.0 | 0.00 | 0.00 | 0.00 | 61 | 1015.2 |
| 20260504190509 | 80 | 168 | 3.0 | 12.0 | 0.00 | 0.00 | 0.00 | 60 | 1015.4 |
| 20260504190009 | 81 | 210 | 4.0 | 11.0 | 0.00 | 0.00 | 0.00 | 59 | 1015.4 |
| 20260504185509 | 81 | 142 | 3.0 | 7.0 | 0.00 | 0.00 | 0.00 | 60 | 1015.4 |
| 20260504185008 | 81 | 178 | 3.0 | 8.0 | 0.00 | 0.00 | 0.00 | 59 | 1015.4 |
| 20260504184507 | 81 | 153 | 2.0 | 9.0 | 0.00 | 0.00 | 0.00 | 60 | 1015.4 |
| 20260504184007 | 81 | 205 | 3.0 | 11.0 | 0.00 | 0.00 | 0.00 | 59 | 1015.5 |
| 20260504183505 | 80 | 220 | 5.0 | 12.0 | 0.00 | 0.00 | 0.00 | 60 | 1015.5 |
| 20260504183004 | 79 | 150 | 2.0 | 11.0 | 0.00 | 0.00 | 0.00 | 61 | 1015.3 |
| 20260504182510 | 79 | 169 | 4.0 | 14.0 | 0.00 | 0.00 | 0.00 | 61 | 1015.4 |
| 20260504182006 | 79 | 178 | 4.0 | 14.0 | 0.00 | 0.00 | 0.00 | 61 | 1015.4 |
| 20260504181502 | 80 | 132 | 3.0 | 10.0 | 0.00 | 0.00 | 0.00 | 60 | 1015.7 |
| 20260504181001 | 79 | 149 | 4.0 | 11.0 | 0.00 | 0.00 | 0.00 | 60 | 1016.0 |
| 20260504180501 | 79 | 173 | 3.0 | 11.0 | 0.00 | 0.00 | 0.00 | 61 | 1015.8 |
| 20260504180100 | 79 | 164 | 3.0 | 9.0 | 0.00 | 0.00 | 0.00 | 61 | 1016.0 |
| 20260504175600 | 79 | 212 | 3.0 | 8.0 | 0.00 | 0.00 | 0.00 | 61 | 1016.2 |
| 20260504175059 | 80 | 215 | 3.0 | 9.0 | 0.00 | 0.00 | 0.00 | 60 | 1016.2 |
| 20260504174606 | 79 | 237 | 2.0 | 9.0 | 0.00 | 0.00 | 0.00 | 61 | 1016.0 |
| 20260504174057 | 78 | 209 | 3.0 | 10.0 | 0.00 | 0.00 | 0.00 | 62 | 1016.3 |
| 20260504173556 | 78 | 219 | 3.0 | 10.0 | 0.00 | 0.00 | 0.00 | 61 | 1016.4 |
| 20260504173058 | 78 | 190 | 4.0 | 11.0 | 0.00 | 0.00 | 0.00 | 61 | 1016.1 |
| 20260504172554 | 78 | 190 | 3.0 | 11.0 | 0.00 | 0.00 | 0.00 | 61 | 1016.4 |
| 20260504172054 | 78 | 173 | 7.0 | 11.0 | 0.00 | 0.00 | 0.00 | 60 | 1016.6 |
| 20260504171553 | 78 | 186 | 3.0 | 12.0 | 0.00 | 0.00 | 0.00 | 63 | 1016.7 |
| 20260504171052 | 78 | 183 | 6.0 | 12.0 | 0.00 | 0.00 | 0.00 | 62 | 1016.8 |
| 20260504170552 | 77 | 185 | 3.0 | 12.0 | 0.00 | 0.00 | 0.00 | 62 | 1016.7 |
| 20260504151029 | 74 | 189 | 4.0 | 11.0 | 0.00 | 0.00 | 0.00 | 68 | 1017.5 |
| 20260504150534 | 74 | 167 | 6.0 | 12.0 | 0.00 | 0.00 | 0.00 | 68 | 1017.7 |
| 20260504141019 | 71 | 180 | 3.0 | 8.0 | 0.00 | 0.00 | 0.00 | 69 | 1017.5 |
| 20260504140521 | 71 | 158 | 2.0 | 10.0 | 0.00 | 0.00 | 0.00 | 69 | 1017.4 |
| 20260504130502 | 65 | 157 | 1.0 | 3.0 | 0.00 | 0.00 | 0.00 | 75 | 1017.5 |
| 20260504110554 | 61 | 166 | 0.0 | 0.0 | 0.00 | 0.00 | 0.00 | 78 | 1017.1 |
| 20260504100549 | 61 | 170 | 0.0 | 0.0 | 0.00 | 0.00 | 0.00 | 76 | 1017.5 |
| 20260504081543 | 62 | 182 | 0.0 | 0.0 | 0.00 | 0.00 | 0.00 | 74 | 1018.0 |
| 20260504081038 | 62 | 182 | 0.0 | 0.0 | 0.00 | 0.00 | 0.00 | 74 | 1018.3 |
| 20260504080537 | 62 | 182 | 0.0 | 0.0 | 0.00 | 0.00 | 0.00 | 74 | 1018.4 |